RH
3 3 4 7 10 10 27 54 68 68 72 88 93 73 42 32 40 52 33 44 59 80 80 56 33 46 81 53 58 40 24 13 17
4 3 3 2 3 5 9 12 35 67 75 72 85 89 61 44 47 53 28 45 84 84 90 81 45 45 74 82 61 41 42 18 26
5 4 4 4 4 4 4 7 10 23 56 71 86 90 84 73 52 59 37 36 82 84 92 88 74 60 66 91 70 48 41 24 24
7 5 5 5 5 5 4 4 6 12 30 57 73 94 91 88 67 58 56 42 68 97 100 98 92 92 78 87 95 65 45 29 26
12 9 6 6 6 6 5 4 4 7 16 50 70 76 96 94 76 72 64 61 77 96 97 96 94 92 95 96 95 95 52 29 18
18 12 10 8 7 8 7 6 5 6 10 24 78 96 82 96 77 78 79 64 78 71 98 97 94 96 100 95 97 96 86 51 32
21 20 13 12 8 10 8 7 8 10 12 24 36 84 94 93 95 88 72 73 88 94 97 96 95 96 88 97 97 96 94 46 38
24 24 17 15 12 12 11 10 12 18 18 44 53 41 88 97 95 97 95 77 93 100 95 96 95 84 97 97 96 96 96 84 34
29 26 19 16 14 13 16 12 11 15 19 19 51 77 73 96 95 97 98 94 84 94 97 96 95 95 94 96 98 96 97 97 70
32 30 22 18 20 14 16 21 18 15 17 28 32 52 88 95 95 96 96 94 92 96 96 97 97 96 95 94 96 96 96 96 97
33 34 26 21 21 22 20 14 16 22 23 22 35 39 51 97 96 97 96 96 91 98 96 97 96 97 96 97 96 96 96 96 95
38 37 32 28 28 34 39 43 48 47 22 27 25 42 43 48 98 96 94 95 96 96 96 97 97 96 96 96 97 97 96 95 95
38 46 43 44 45 42 42 47 55 59 55 26 31 26 42 41 61 86 93 97 96 97 98 97 97 97 97 97 96 97 97 97 97
30 51 52 54 55 50 41 49 54 61 40 23 36 34 24 34 34 50 94 97 97 98 96 97 97 98 97 97 97 97 96 97 97
29 36 46 52 55 55 53 52 53 58 65 38 23 35 38 23 22 23 44 73 92 96 96 97 97 97 97 96 96 96 97 97 97
36 32 35 41 50 51 51 54 59 53 47 60 54 25 25 37 32 24 20 24 49 71 76 82 95 96 97 96 98 96 97 97 97
49 37 34 35 38 39 38 37 45 55 56 51 53 61 46 25 24 28 27 22 19 23 39 34 62 93 94 97 98 96 97 98 96
69 58 46 42 45 42 38 36 34 37 40 44 46 42 50 58 48 38 29 26 24 21 20 20 33 45 58 58 93 96 96 98 96
70 75 69 64 67 68 62 57 46 31 33 40 43 41 36 40 65 64 56 50 47 42 29 24 23 22 22 20 41 78 83 96 96
46 68 74 72 71 68 66 62 54 52 49 38 33 33 31 36 41 60 58 51 48 48 47 36 27 24 22 22 22 28 34 48 86
Wind_Speed
22 24 25 28 29 30 33 33 30 31 30 30 24 32 30 27 25 24 22 21 20 21 21 21 23 25 25 25 28 30 32 30 27
23 22 22 21 24 29 32 34 36 35 34 35 33 31 29 27 26 24 23 24 22 22 23 22 24 26 26 26 28 31 33 33 31
27 27 25 24 25 26 29 35 37 39 36 35 32 30 34 28 28 26 26 27 23 29 26 25 25 27 27 27 30 33 34 34 33
28 30 30 30 29 27 29 32 38 39 39 39 38 34 30 34 30 30 30 30 32 24 26 28 27 27 28 29 33 35 35 36 35
30 29 30 32 31 30 30 32 37 42 41 40 39 36 35 36 32 33 34 32 33 28 30 28 28 30 30 30 35 40 38 37 38
29 31 31 31 33 30 30 33 35 43 45 43 41 37 39 36 36 34 35 36 31 39 31 29 31 32 32 32 36 40 41 38 38
32 32 32 30 31 31 30 31 34 39 45 46 44 42 40 41 41 41 39 39 42 33 35 36 36 34 36 39 42 40 42 39 39
31 31 32 31 29 31 28 28 30 33 38 44 47 45 44 44 47 40 44 44 42 39 38 39 41 42 38 43 37 39 38 46 41
31 30 31 30 29 30 30 28 29 32 35 38 45 46 44 46 48 44 38 44 46 42 36 27 43 46 46 50 44 37 38 45 48
32 32 30 28 27 27 30 31 31 32 34 35 40 45 45 47 47 46 43 49 47 47 45 39 38 44 48 49 47 36 40 41 45
35 30 30 30 27 26 25 25 29 32 35 36 39 42 45 47 44 45 45 45 51 46 48 49 54 41 39 42 43 52 49 46 46
35 31 30 29 28 27 29 31 32 31 33 39 40 39 44 48 46 46 50 47 46 44 49 42 44 53 55 50 39 46 54 52 51
37 32 32 31 32 31 31 31 33 34 38 35 41 40 40 43 47 50 49 45 44 50 42 48 35 36 41 45 55 41 48 51 52
39 35 33 32 32 31 31 32 33 30 31 34 36 42 41 41 41 46 52 45 45 38 47 46 41 41 43 45 45 49 47 45 49
36 39 37 35 34 33 34 35 32 33 33 32 34 37 42 45 45 44 45 52 57 55 44 46 45 43 45 44 44 44 46 53 52
34 38 39 39 37 36 36 37 35 34 37 39 38 36 39 41 47 48 46 46 47 49 51 53 55 54 46 47 43 42 42 48 50
32 35 36 39 39 40 39 38 38 38 37 38 39 41 41 41 42 43 46 49 49 49 49 46 50 50 51 49 48 46 43 44 49
33 34 35 37 38 40 40 39 38 38 39 40 40 41 42 45 46 44 43 43 45 50 51 49 47 46 46 50 54 44 50 44 44
32 34 35 37 38 38 37 39 40 40 39 38 40 42 43 46 47 51 48 46 45 45 47 47 47 50 49 49 46 46 51 54 46
33 33 33 33 33 35 36 38 40 41 41 43 41 40 42 43 47 50 51 51 51 51 51 50 47 46 47 47 47 49 49 54 59
Wind_Direction
271 267 266 265 262 260 258 256 256 255 252 251 266 248 248 241 239 235 233 233 237 237 237 232 224 215 216 220 216 211 208 205 205
275 271 270 269 269 266 262 260 255 255 251 255 260 247 246 241 235 232 232 231 233 232 235 230 224 217 218 219 219 215 212 208 207
272 265 262 261 265 267 263 258 257 255 252 253 252 249 241 243 236 230 231 230 239 237 232 230 227 226 224 223 220 218 216 213 211
275 270 267 268 266 273 271 263 257 254 254 251 249 247 243 234 235 230 229 230 235 224 231 233 230 233 231 228 225 217 217 216 215
278 275 270 266 267 269 270 271 260 254 250 249 251 245 243 236 230 231 227 231 231 250 233 234 236 239 242 239 233 219 215 218 218
281 273 271 270 268 270 272 272 266 253 249 247 246 245 242 238 229 231 230 227 232 235 235 231 232 232 240 240 242 227 210 219 219
280 279 271 270 268 268 274 277 273 258 250 248 247 244 241 236 234 230 234 231 229 228 234 231 226 235 232 240 233 226 212 218 220
277 277 274 272 270 266 275 278 279 268 257 249 245 243 241 235 236 231 229 233 235 238 245 240 240 235 232 235 234 237 219 213 223
276 273 270 268 271 266 267 272 275 269 259 256 248 244 247 239 236 234 230 229 235 236 225 246 246 240 233 232 241 240 228 219 219
277 268 268 266 268 267 264 265 268 270 263 255 251 247 243 244 234 230 234 235 232 238 240 236 238 239 238 238 240 241 243 230 224
277 272 266 265 265 264 265 268 267 267 266 260 253 248 245 243 246 240 233 235 233 230 243 240 242 236 238 238 244 241 238 237 237
277 269 264 262 261 261 266 270 271 270 271 260 255 251 249 250 246 246 239 238 228 236 237 235 243 241 238 239 243 242 239 237 236
273 269 263 263 263 264 266 270 273 268 266 267 253 254 251 255 254 253 245 247 245 243 241 229 231 237 236 235 236 229 230 234 235
272 272 268 266 262 260 259 266 270 267 267 262 262 253 252 252 254 254 249 242 230 229 229 235 232 235 233 239 237 239 241 239 231
269 273 272 270 264 259 259 261 263 267 264 263 262 261 256 252 253 254 256 262 261 252 248 236 226 233 231 237 243 242 244 237 237
269 269 272 272 269 267 264 262 263 264 269 265 260 259 261 261 256 255 256 255 260 264 267 267 255 248 243 239 232 235 245 240 234
269 267 266 272 272 274 273 272 271 267 265 266 268 264 260 261 261 259 258 257 257 256 258 258 269 271 263 245 247 240 240 241 238
275 271 267 265 269 272 278 278 274 272 270 269 266 267 268 260 261 262 259 258 256 258 260 258 258 259 262 271 269 259 235 229 224
278 273 269 270 273 271 274 277 277 275 274 270 269 268 267 268 263 261 261 259 260 260 260 257 254 255 253 254 255 259 263 257 233
282 275 272 272 270 270 272 272 270 269 270 272 271 268 268 266 268 265 264 261 260 261 260 261 256 251 251 251 250 248 251 259 265